Year,Month,Day,Hour,Minute,Value (Times are PST for temperature in C)
2012,01,13,14,07,4.30
2012,01,13,14,08,4.20
2012,01,13,14,09,4.20
2012,01,13,14,10,4.20
2012,01,13,14,11,4.20
2012,01,13,14,12,4.20
2012,01,13,14,13,4.20
2012,01,13,14,14,4.20
2012,01,13,14,15,4.20
2012,01,13,14,16,4.20
2012,01,13,14,17,4.20
2012,01,13,14,18,4.20
2012,01,13,14,19,4.20
2012,01,13,14,20,4.20
2012,01,13,14,21,4.20
2012,01,13,14,22,4.20
2012,01,13,14,23,4.20
2012,01,13,14,24,4.20
2012,01,13,14,25,4.20
2012,01,13,14,26,4.20
2012,01,13,14,28,4.20
2012,01,13,14,29,4.20
2012,01,13,14,30,4.20
2012,01,13,14,31,4.20
2012,01,13,14,33,4.10
2012,01,13,14,34,4.10
2012,01,13,14,35,4.10
2012,01,13,14,36,4.10
2012,01,13,14,38,4.10
2012,01,13,14,39,4.10
2012,01,13,14,40,4.10
2012,01,13,14,41,4.10
2012,01,13,14,42,4.10
2012,01,13,14,43,4.10
2012,01,13,14,44,4.10
2012,01,13,14,45,4.10
2012,01,13,14,46,4.10
2012,01,13,14,47,4.10
2012,01,13,14,48,4.20
2012,01,13,14,49,4.20
2012,01,13,14,50,4.10
2012,01,13,14,52,4.10
2012,01,13,14,53,4.10
2012,01,13,14,54,4.10
2012,01,13,14,55,4.10
2012,01,13,14,56,4.10
2012,01,13,14,57,4.10
2012,01,13,14,58,4.10
2012,01,13,14,59,4.10
2012,01,13,15,00,4.10
2012,01,13,15,02,4.10
2012,01,13,15,03,4.10
2012,01,13,15,04,4.10
2012,01,13,15,05,4.10
2012,01,13,15,06,4.10
2012,01,13,15,07,4.10
2012,01,13,15,08,4.10
2012,01,13,15,09,4.20
2012,01,13,15,10,4.20
2012,01,13,15,12,4.20
2012,01,13,15,13,4.20
2012,01,13,15,14,4.20
2012,01,13,15,15,4.20
2012,01,13,15,16,4.20
2012,01,13,15,17,4.20
2012,01,13,15,18,4.20
2012,01,13,15,19,4.20
2012,01,13,15,20,4.20
2012,01,13,15,21,4.20
2012,01,13,15,22,4.20
2012,01,13,15,23,4.20
2012,01,13,15,24,4.20
2012,01,13,15,25,4.10
2012,01,13,15,27,4.10
2012,01,13,15,28,4.10
2012,01,13,15,29,4.20
2012,01,13,15,30,4.10
2012,01,13,15,31,4.10
2012,01,13,15,32,4.10
2012,01,13,15,33,4.10
2012,01,13,15,34,4.10
2012,01,13,15,35,4.10
2012,01,13,15,36,4.10
2012,01,13,15,37,4.10
2012,01,13,15,39,4.10
2012,01,13,15,40,4.10
2012,01,13,15,41,4.10
2012,01,13,15,42,4.10
2012,01,13,15,43,4.10
2012,01,13,15,44,4.10
2012,01,13,15,45,4.10
2012,01,13,15,46,4.10
2012,01,13,15,47,4.10
2012,01,13,15,48,4.10
2012,01,13,15,49,4.10
2012,01,13,15,50,4.10
2012,01,13,15,51,4.10
2012,01,13,15,53,4.10
2012,01,13,15,54,4.10
2012,01,13,15,55,4.10
2012,01,13,15,56,4.10
2012,01,13,15,57,4.10
2012,01,13,15,59,4.10
2012,01,13,16,00,4.10
2012,01,13,16,01,4.10
2012,01,13,16,02,4.10
2012,01,13,16,03,4.10
2012,01,13,16,04,4.10
2012,01,13,16,05,4.10
2012,01,13,16,06,4.10
2012,01,13,16,07,4.10
2012,01,13,16,09,4.10
2012,01,13,16,10,4.10
2012,01,13,16,11,4.10
2012,01,13,16,12,4.10
2012,01,13,16,13,4.10
2012,01,13,16,14,4.10
2012,01,13,16,15,4.10
2012,01,13,16,16,4.10
2012,01,13,16,17,4.10
2012,01,13,16,18,4.00
2012,01,13,16,19,4.10
2012,01,13,16,20,4.10
2012,01,13,16,21,4.00
2012,01,13,16,22,4.00
2012,01,13,16,24,4.10
2012,01,13,16,25,4.10
2012,01,13,16,26,4.10
2012,01,13,16,27,4.10
2012,01,13,16,28,4.10
2012,01,13,16,29,4.10
2012,01,13,16,31,4.10
2012,01,13,16,32,4.10
2012,01,13,16,33,4.10
2012,01,13,16,35,4.10
2012,01,13,16,36,4.00
2012,01,13,16,37,4.00
2012,01,13,16,38,4.00
2012,01,13,16,40,4.00
2012,01,13,16,41,4.00
2012,01,13,16,42,4.00
2012,01,13,16,43,3.90
2012,01,13,16,45,3.90
2012,01,13,16,46,3.90
2012,01,13,16,47,3.90
2012,01,13,16,48,3.90
2012,01,13,16,50,3.90
2012,01,13,16,51,3.80
2012,01,13,16,52,3.80
2012,01,13,16,53,3.80
2012,01,13,16,54,3.80
2012,01,13,16,55,3.80
2012,01,13,16,56,3.80
2012,01,13,16,57,3.70
2012,01,13,16,59,3.70
2012,01,13,17,00,3.70
2012,01,13,17,01,3.70
2012,01,13,17,02,3.70
2012,01,13,17,04,3.70
2012,01,13,17,05,3.70
2012,01,13,17,06,3.70
2012,01,13,17,08,3.70
2012,01,13,17,09,3.70
2012,01,13,17,10,3.70
2012,01,13,17,11,3.70
2012,01,13,17,12,3.70
2012,01,13,17,14,3.70
2012,01,13,17,15,3.70
2012,01,13,17,16,3.70
2012,01,13,17,18,3.70
2012,01,13,17,19,3.70
2012,01,13,17,20,3.70
2012,01,13,17,21,3.70
2012,01,13,17,23,3.70
2012,01,13,17,24,3.70
2012,01,13,17,25,3.70
2012,01,13,17,26,3.70
2012,01,13,17,28,3.70
2012,01,13,17,29,3.60
2012,01,13,17,30,3.60
2012,01,13,17,31,3.60
2012,01,13,17,32,3.60
2012,01,13,17,33,3.60
2012,01,13,17,34,3.70
2012,01,13,17,35,3.70
2012,01,13,17,36,3.70
2012,01,13,17,37,3.70
2012,01,13,17,38,3.70
2012,01,13,17,39,3.70
2012,01,13,17,40,3.70
2012,01,13,17,41,3.80
2012,01,13,17,42,3.80
2012,01,13,17,43,3.80
2012,01,13,17,44,3.80
2012,01,13,17,45,3.80
2012,01,13,17,46,3.80
2012,01,13,17,47,3.80
2012,01,13,17,48,3.80
2012,01,13,17,49,3.80
2012,01,13,17,50,3.80
2012,01,13,17,51,3.80
2012,01,13,17,52,3.70
2012,01,13,17,53,3.70
2012,01,13,17,54,3.70
2012,01,13,17,55,3.70
2012,01,13,17,56,3.70
2012,01,13,17,57,3.70
2012,01,13,17,58,3.70
2012,01,13,17,59,3.70
2012,01,13,18,00,3.70
2012,01,13,18,02,3.70
2012,01,13,18,03,3.70
2012,01,13,18,04,3.70
2012,01,13,18,05,3.70
2012,01,13,18,06,3.70
2012,01,13,18,07,3.70
2012,01,13,18,08,3.70
2012,01,13,18,09,3.70
2012,01,13,18,10,3.70
2012,01,13,18,12,3.70
2012,01,13,18,13,3.70
2012,01,13,18,14,3.70
2012,01,13,18,15,3.70
2012,01,13,18,16,3.70
2012,01,13,18,17,3.70
2012,01,13,18,18,3.70
2012,01,13,18,19,3.70
2012,01,13,18,20,3.70
2012,01,13,18,22,3.70
2012,01,13,18,23,3.70
2012,01,13,18,24,3.70
2012,01,13,18,25,3.70
2012,01,13,18,26,3.70
2012,01,13,18,27,3.70
2012,01,13,18,28,3.70
2012,01,13,18,29,3.70
2012,01,13,18,30,3.70
2012,01,13,18,31,3.70
2012,01,13,18,32,3.60
2012,01,13,18,33,3.60
2012,01,13,18,34,3.60
2012,01,13,18,36,3.60
2012,01,13,18,37,3.60
2012,01,13,18,38,3.60
2012,01,13,18,39,3.60
2012,01,13,18,40,3.60
2012,01,13,18,42,3.60
2012,01,13,18,43,3.50
2012,01,13,18,44,3.50
2012,01,13,18,45,3.50
2012,01,13,18,47,3.50
2012,01,13,18,48,3.50
2012,01,13,18,49,3.40
2012,01,13,18,50,3.40
2012,01,13,18,52,3.40
2012,01,13,18,53,3.40
2012,01,13,18,54,3.40
2012,01,13,18,55,3.40
2012,01,13,18,56,3.40
2012,01,13,18,57,3.40
2012,01,13,18,58,3.40
2012,01,13,18,59,3.40
2012,01,13,19,00,3.40
2012,01,13,19,01,3.40
2012,01,13,19,02,3.40
2012,01,13,19,03,3.40
2012,01,13,19,04,3.40
2012,01,13,19,05,3.40
2012,01,13,19,06,3.40
2012,01,13,19,07,3.40
2012,01,13,19,08,3.40
2012,01,13,19,09,3.40
2012,01,13,19,10,3.40
2012,01,13,19,11,3.40
2012,01,13,19,12,3.40
2012,01,13,19,13,3.40
2012,01,13,19,15,3.40
2012,01,13,19,16,3.40
2012,01,13,19,17,3.40
2012,01,13,19,18,3.40
2012,01,13,19,20,3.40
2012,01,13,19,21,3.40
2012,01,13,19,22,3.50
2012,01,13,19,23,3.50
2012,01,13,19,24,3.50
2012,01,13,19,25,3.50
2012,01,13,19,26,3.50
2012,01,13,19,27,3.60
2012,01,13,19,29,3.60
2012,01,13,19,30,3.50
2012,01,13,19,31,3.50
2012,01,13,19,32,3.50
2012,01,13,19,33,3.40
2012,01,13,19,34,3.40
2012,01,13,19,35,3.40
2012,01,13,19,36,3.40
2012,01,13,19,37,3.40
2012,01,13,19,38,3.40
2012,01,13,19,39,3.40
2012,01,13,19,40,3.40
2012,01,13,19,42,3.40
2012,01,13,19,43,3.40
2012,01,13,19,44,3.40
2012,01,13,19,45,3.50
2012,01,13,19,47,3.50
2012,01,13,19,48,3.40
2012,01,13,19,49,3.40
2012,01,13,19,50,3.40
2012,01,13,19,52,3.40
2012,01,13,19,53,3.40
2012,01,13,19,54,3.40
2012,01,13,19,55,3.40
2012,01,13,19,57,3.40
2012,01,13,19,58,3.40
2012,01,13,19,59,3.40
2012,01,13,20,00,3.40
2012,01,13,20,01,3.40
2012,01,13,20,03,3.40
2012,01,13,20,04,3.50
2012,01,13,20,05,3.50
2012,01,13,20,07,3.50
2012,01,13,20,08,3.60
2012,01,13,20,09,3.60
2012,01,13,20,10,3.50
2012,01,13,20,11,3.60
2012,01,13,20,12,3.60
2012,01,13,20,13,3.60
2012,01,13,20,14,3.60
2012,01,13,20,15,3.60
2012,01,13,20,16,3.60
2012,01,13,20,18,3.70
2012,01,13,20,19,3.70
2012,01,13,20,20,3.70
2012,01,13,20,21,3.70
2012,01,13,20,23,3.70
2012,01,13,20,24,3.70
2012,01,13,20,25,3.70
2012,01,13,20,26,3.70
2012,01,13,20,28,3.70
2012,01,13,20,29,3.70
2012,01,13,20,30,3.70
2012,01,13,20,31,3.70
2012,01,13,20,33,3.70
2012,01,13,20,34,3.70
2012,01,13,20,35,3.70
2012,01,13,20,36,3.70
2012,01,13,20,37,3.70
2012,01,13,20,38,3.70
2012,01,13,20,39,3.70
2012,01,13,20,40,3.70
2012,01,13,20,41,3.70
2012,01,13,20,43,3.70
2012,01,13,20,44,3.70
2012,01,13,20,45,3.70
2012,01,13,20,46,3.60
2012,01,13,20,47,3.70
2012,01,13,20,48,3.70
2012,01,13,20,49,3.60
2012,01,13,20,50,3.60
2012,01,13,20,51,3.70
2012,01,13,20,52,3.70
2012,01,13,20,53,3.70
2012,01,13,20,54,3.60
2012,01,13,20,55,3.60
2012,01,13,20,56,3.60
2012,01,13,20,57,3.60
2012,01,13,20,58,3.60
2012,01,13,20,59,3.60
2012,01,13,21,00,3.60
2012,01,13,21,01,3.60
2012,01,13,21,02,3.60
2012,01,13,21,04,3.60
2012,01,13,21,05,3.60
2012,01,13,21,06,3.60
2012,01,13,21,07,3.60
2012,01,13,21,08,3.60
2012,01,13,21,09,3.60
2012,01,13,21,10,3.70
2012,01,13,21,11,3.60
2012,01,13,21,12,3.60
2012,01,13,21,13,3.60
2012,01,13,21,14,3.60
2012,01,13,21,15,3.60
2012,01,13,21,16,3.60
2012,01,13,21,17,3.60
2012,01,13,21,18,3.60
2012,01,13,21,20,3.60
2012,01,13,21,21,3.60
2012,01,13,21,22,3.60
2012,01,13,21,23,3.60
2012,01,13,21,25,3.60
2012,01,13,21,26,3.60
2012,01,13,21,27,3.60
2012,01,13,21,28,3.60
2012,01,13,21,30,3.60
2012,01,13,21,31,3.60
2012,01,13,21,32,3.60
2012,01,13,21,33,3.60
2012,01,13,21,35,3.60
2012,01,13,21,36,3.60
2012,01,13,21,37,3.60
2012,01,13,21,39,3.60
2012,01,13,21,40,3.60
2012,01,13,21,41,3.60
2012,01,13,21,42,3.60
2012,01,13,21,44,3.60
2012,01,13,21,45,3.50
2012,01,13,21,46,3.50
2012,01,13,21,47,3.40
2012,01,13,21,48,3.40
2012,01,13,21,49,3.40
2012,01,13,21,50,3.40
2012,01,13,21,51,3.40
2012,01,13,21,52,3.40
2012,01,13,21,53,3.40
2012,01,13,21,54,3.40
2012,01,13,21,55,3.40
2012,01,13,21,56,3.40
2012,01,13,21,57,3.40
2012,01,13,21,58,3.40
2012,01,13,21,59,3.40
2012,01,13,22,00,3.50
2012,01,13,22,01,3.50
2012,01,13,22,02,3.50
2012,01,13,22,03,3.40
2012,01,13,22,04,3.40
2012,01,13,22,05,3.40
2012,01,13,22,06,3.40
2012,01,13,22,07,3.40
2012,01,13,22,08,3.40
2012,01,13,22,09,3.40
2012,01,13,22,10,3.40
2012,01,13,22,11,3.40
2012,01,13,22,12,3.40
2012,01,13,22,13,3.40
2012,01,13,22,14,3.40
2012,01,13,22,15,3.30
2012,01,13,22,16,3.30
2012,01,13,22,17,3.30
2012,01,13,22,18,3.30
2012,01,13,22,19,3.30
2012,01,13,22,20,3.30
2012,01,13,22,21,3.30
2012,01,13,22,22,3.30
2012,01,13,22,23,3.30
2012,01,13,22,24,3.30
2012,01,13,22,25,3.30
2012,01,13,22,27,3.30
2012,01,13,22,28,3.30
2012,01,13,22,29,3.30
2012,01,13,22,30,3.30
2012,01,13,22,32,3.30
2012,01,13,22,33,3.30
2012,01,13,22,34,3.30
2012,01,13,22,35,3.30
2012,01,13,22,37,3.30
2012,01,13,22,38,3.20
2012,01,13,22,39,3.20
2012,01,13,22,40,3.20
2012,01,13,22,41,3.20
2012,01,13,22,42,3.20
2012,01,13,22,43,3.10
2012,01,13,22,44,3.10
2012,01,13,22,45,3.10
2012,01,13,22,46,3.10
2012,01,13,22,47,3.10
2012,01,13,22,48,3.10
2012,01,13,22,49,3.10
2012,01,13,22,50,3.10
2012,01,13,22,51,3.10
2012,01,13,22,52,3.10
2012,01,13,22,53,3.10
2012,01,13,22,54,3.10
2012,01,13,22,55,3.10
2012,01,13,22,56,3.10
2012,01,13,22,57,3.10
2012,01,13,22,58,3.10
2012,01,13,22,59,3.10
2012,01,13,23,00,3.10
2012,01,13,23,01,3.10
2012,01,13,23,02,3.10
2012,01,13,23,03,3.00
2012,01,13,23,04,3.00
2012,01,13,23,05,2.90
2012,01,13,23,06,2.90
2012,01,13,23,07,2.90
2012,01,13,23,08,2.90
2012,01,13,23,09,2.90
2012,01,13,23,10,2.90
2012,01,13,23,11,2.90
2012,01,13,23,12,2.90
2012,01,13,23,13,2.80
2012,01,13,23,14,2.90
2012,01,13,23,15,2.80
2012,01,13,23,16,2.80
2012,01,13,23,17,2.80
2012,01,13,23,18,2.80
2012,01,13,23,19,2.80
2012,01,13,23,20,2.80
2012,01,13,23,21,2.80
2012,01,13,23,22,2.80
2012,01,13,23,23,2.70
2012,01,13,23,24,2.70
2012,01,13,23,25,2.70
2012,01,13,23,26,2.70
2012,01,13,23,27,2.70
2012,01,13,23,28,2.70
2012,01,13,23,29,2.70
2012,01,13,23,30,2.70
2012,01,13,23,31,2.60
2012,01,13,23,32,2.60
2012,01,13,23,33,2.60
2012,01,13,23,35,2.50
2012,01,13,23,36,2.40
2012,01,13,23,37,2.30
2012,01,13,23,38,2.30
2012,01,13,23,40,2.20
2012,01,13,23,41,2.20
2012,01,13,23,42,2.20
2012,01,13,23,43,2.20
2012,01,13,23,44,2.10
2012,01,13,23,45,2.10
2012,01,13,23,46,2.10
2012,01,13,23,47,2.10
2012,01,13,23,48,2.10
2012,01,13,23,49,2.00
2012,01,13,23,50,2.00
2012,01,13,23,51,1.90
2012,01,13,23,52,1.90
2012,01,13,23,54,1.90
2012,01,13,23,55,1.90
2012,01,13,23,56,1.80
2012,01,13,23,57,1.80
2012,01,13,23,59,1.80
